Weather in Askarovo

Russia / Republic of Bashkortostan     53°20′10″N   58°30′41″E
temp.,
°C
wind,
m/s
gust,
m/s
humid.,
%
clouds,
%
prec.,
mm/h
press.,
hPa
HPBL,
m
1 march, mon
mon123:00−13nne239698 0.6 100846
02:00−16n229796 0.1 101021
05:00−17n119795 0.1 101220
08:00−16ese119794 0.2 101420
11:00−14ese119491 0.3 1015152
14:00−12ese2192100 0.1 1016208
17:00−11se2295100 0.2 1016156
20:00−13ssw229799 0.1 101730
2 march, tue
tue223:00−14w2292100 0.1 101820
02:00−16w229294 0.0 101820
05:00−19w339378 0.0 101821
08:00−21w33940 0.0 101727
11:00−14w311870 0.0 1016340
14:00−10w4108343 0.0 1013477
17:00−10wsw5128772 0.0 1011560
20:00−13wsw51587100 0.0 1010538
3 march, wed
wed323:00−12wsw61686100 0.0 1008510
02:00−9sw51587100 0.0 1005550
05:00−7sw51488100 0.0 1004656
08:00−8sw51388100 0.0 1002440
11:00−4wsw61186100 0.0 1002706
14:00−2wsw588396 0.1 10021061
17:00−2wsw478698 0.1 1002614
20:00−7wsw3389100 0.0 100239
4 march, thu
thu423:00−10w339270 0.0 100321
02:00−11w359182 0.0 1002103
05:00−12w389083 0.0 1004144
08:00−13w411890 0.0 1005236
11:00−9wnw7128410 0.0 1006626
14:00−7wnw7108059 0.0 10071009
17:00−8w6118260 0.0 1008761
20:00−11wsw6138649 0.0 1009390
5 march, fri
fri523:00−10wsw6158668 0.0 1010547
02:00−10sw6168694 0.0 1007643
05:00−7sw7178586 0.1 1005838
08:00−4wsw10208485 0.1 1003999
11:00−3wsw14238167 0.1 10031177
14:00−2wsw13218115 0.1 10041314
17:00−2wsw10178123 0.1 10071141
20:00−6w7167057 0.7 1010509